This is the latest recevied weather packets stored in our database for station/object AD0YN. If no packets are shown the sender has not sent any weather packets the latest 10 day(s).
| Time | Temp. | Humidity | Pressure | Rain* | Wind** | Luminosity | Snow |
|---|---|---|---|---|---|---|---|
| 1777881472 | 13.89° C | 77% | 1005.8 hPa | 0 mm | - | 0 W/m² | - |
| 1777881169 | 13.89° C | 77% | 1005.9 hPa | 0 mm | - | 0 W/m² | - |
| 1777880867 | 13.89° C | 77% | 1005.6 hPa | 0 mm | - | 0 W/m² | - |
| 1777880564 | 13.89° C | 75% | 1005.9 hPa | 0 mm | - | 0 W/m² | - |
| 1777880263 | 13.89° C | 73% | 1006.5 hPa | 0 mm | - | 0 W/m² | - |
| 1777879961 | 13.89° C | 72% | 1006.3 hPa | 0 mm | - | 0 W/m² | - |
| 1777879659 | 13.89° C | 71% | 1005.7 hPa | 0 mm | - | 0 W/m² | - |
| 1777879355 | 14.44° C | 70% | 1005.8 hPa | 0 mm | - | 0 W/m² | - |
| 1777879052 | 14.44° C | 68% | 1006.1 hPa | 0 mm | - | 0 W/m² | - |
| 1777878749 | 14.44° C | 69% | 1005.9 hPa | 0 mm | - | 0 W/m² | - |
| 1777878447 | 15° C | 67% | 1006.2 hPa | 0 mm | - | 0 W/m² | - |
| 1777878143 | 15° C | 65% | 1006.2 hPa | 0 mm | - | 0 W/m² | - |
| 1777877839 | 15° C | 65% | 1006.2 hPa | 0 mm | - | 0 W/m² | - |
| 1777877537 | 14.44° C | 70% | 1006.6 hPa | 0 mm | - | 0 W/m² | - |
| 1777877233 | 15.56° C | 68% | 1006.7 hPa | 0 mm | - | 0 W/m² | - |
| 1777876930 | 16.11° C | 60% | 1006.7 hPa | 0 mm | - | 0 W/m² | - |
| 1777876628 | 16.67° C | 60% | 1006.5 hPa | 0 mm | - | 0 W/m² | - |
| 1777876326 | 16.11° C | 58% | 1006.5 hPa | 0 mm | - | 0 W/m² | - |
| 1777876021 | 16.11° C | 60% | 1006.5 hPa | 0 mm | - | 0 W/m² | - |
| 1777875717 | 16.11° C | 60% | 1006.7 hPa | 0 mm | - | 0 W/m² | - |
| 1777875414 | 16.67° C | 59% | 1007 hPa | 0 mm | - | 0 W/m² | - |
| 1777875110 | 16.67° C | 57% | 1007 hPa | 0 mm | - | 0 W/m² | - |
| 1777874807 | 16.67° C | 59% | 1007.1 hPa | 0 mm | - | 0 W/m² | - |
| 1777874503 | 17.22° C | 56% | 1007.3 hPa | 0 mm | - | 0 W/m² | - |
| 1777874202 | 17.22° C | 54% | 1007 hPa | 0 mm | - | 0 W/m² | - |
* Rain latest hour (hover to see other rain measurements)
** Current wind speed in m/s (hover to see current wind gust speed)